User: anonymous   Login
Location: Langangen
(59.1000°N, 9.8000°E)
Time: 21:04:06
(UTC+02:00)
Language:

Iridium 60 - Orbit

View from above orbital plane
View from above orbital plane
View from above satellite
View from above satellite

Ground track
Ground track

The orbit data is extracted from the following two-line orbital elements,

1 25276U 98019E   15142.47315374  .00000056  00000-0  12803-4 0  9995
2 25276 086.3980 243.2871 0002216 094.5353 265.6096 14.34215758897609
Epoch (UTC): 22 May 2015 11:21:20
Eccentricity: 0.0002216
inclination: 86.3980°
perigee height: 776 km
apogee height: 779 km
right ascension of ascending node: 243.2871°
argument of perigee: 94.5353°
revolutions per day: 14.34215758
mean anomaly at epoch: 265.6096°
orbit number at epoch: 89760

The dashed part of the orbit path shows where the satellite is in the earth's shadow,  

DLR